Total_Precipitation_Accumulation
0.90 1.04 1.47 1.89 2.22 2.66 2.92 2.87 2.63 2.65 2.77 2.84 2.65 2.82 3.11 3.44 3.69 3.61 3.52 3.48 3.42 3.35 3.34 3.35 3.29 3.17 3.12 2.98 2.82 2.63 2.52 2.35 2.14 2.06 1.83 1.56 1.38 1.26 1.21 1.25 1.29 1.24 1.20
0.93 1.14 1.52 1.78 2.15 2.51 2.61 2.83 2.92 2.90 2.78 3.04 3.29 3.56 3.87 4.04 4.31 4.57 4.63 4.51 4.27 4.03 3.84 3.74 3.53 3.21 3.03 2.92 2.74 2.57 2.44 2.24 2.05 2.00 1.95 1.63 1.40 1.14 0.99 1.02 1.03 1.06 1.11
1.15 1.32 1.55 1.72 1.97 2.34 2.57 2.82 3.05 3.10 3.04 3.45 3.99 4.49 4.76 4.78 4.84 4.90 4.97 4.91 4.49 4.13 3.85 3.55 3.33 3.10 2.91 2.79 2.71 2.56 2.44 2.25 2.07 1.95 2.01 1.89 1.65 1.31 1.13 1.00 0.96 0.98 1.02
1.04 1.21 1.41 1.75 1.84 2.13 2.38 2.61 2.92 3.27 3.56 3.98 4.50 5.08 5.39 5.54 5.45 5.14 4.90 4.59 4.18 3.80 3.35 3.12 3.10 2.93 2.71 2.54 2.37 2.21 2.14 2.09 2.00 1.91 1.77 1.71 1.63 1.49 1.34 1.22 1.16 1.09 1.06
0.93 1.01 1.12 1.37 1.62 1.86 2.11 2.42 2.76 3.12 3.72 4.45 5.04 5.48 5.81 5.78 5.38 4.90 4.34 3.90 3.56 3.26 2.98 2.76 2.76 2.67 2.43 2.18 1.93 1.76 1.69 1.70 1.75 1.72 1.66 1.58 1.51 1.35 1.24 1.23 1.18 1.15 1.10
0.97 0.96 0.98 1.17 1.38 1.55 1.81 2.17 2.58 2.89 3.42 4.08 4.70 5.07 5.34 5.28 4.90 4.28 3.75 3.37 3.01 2.70 2.44 2.18 2.03 1.91 1.74 1.63 1.53 1.41 1.37 1.36 1.43 1.47 1.43 1.40 1.38 1.34 1.28 1.23 1.15 1.15 1.21
1.04 0.98 0.92 1.00 1.16 1.29 1.51 1.75 2.13 2.60 2.97 3.35 3.90 4.07 4.12 3.96 3.59 3.31 3.09 2.71 2.34 2.04 1.80 1.61 1.48 1.40 1.32 1.26 1.25 1.24 1.22 1.15 1.12 1.14 1.17 1.17 1.13 1.13 1.19 1.26 1.28 1.24 1.21
0.96 0.93 0.88 0.93 1.06 1.18 1.38 1.54 1.79 2.17 2.47 2.61 2.79 2.80 2.72 2.65 2.53 2.34 2.11 1.87 1.63 1.49 1.37 1.21 1.10 1.08 1.10 1.06 1.04 1.02 0.98 0.92 0.85 0.83 0.86 0.90 0.90 0.98 1.13 1.21 1.32 1.39 1.30
0.95 0.92 0.86 0.88 0.99 1.08 1.26 1.34 1.36 1.51 1.63 1.70 1.78 1.86 1.85 1.75 1.73 1.66 1.48 1.35 1.19 1.05 0.98 0.89 0.85 0.82 0.77 0.71 0.67 0.68 0.70 0.73 0.73 0.70 0.71 0.74 0.76 0.85 0.97 1.04 1.15 1.28 1.30
0.96 0.94 0.89 0.86 0.84 0.87 0.97 1.08 1.10 1.12 1.13 1.17 1.15 1.23 1.23 1.16 1.08 1.00 0.95 0.85 0.75 0.65 0.62 0.57 0.56 0.57 0.59 0.56 0.54 0.56 0.59 0.61 0.63 0.65 0.63 0.62 0.63 0.70 0.78 0.85 0.91 1.02 1.12
1.06 0.99 0.92 0.85 0.78 0.75 0.75 0.82 0.87 0.93 0.97 0.97 0.95 0.95 0.92 0.84 0.78 0.75 0.69 0.60 0.53 0.49 0.47 0.47 0.46 0.47 0.50 0.53 0.57 0.59 0.61 0.67 0.65 0.63 0.61 0.58 0.57 0.60 0.64 0.70 0.76 0.83 0.90
1.05 0.96 0.88 0.82 0.75 0.70 0.65 0.66 0.69 0.68 0.75 0.79 0.83 0.84 0.77 0.72 0.68 0.63 0.58 0.54 0.48 0.46 0.47 0.47 0.44 0.41 0.40 0.43 0.49 0.55 0.57 0.63 0.64 0.63 0.62 0.57 0.55 0.59 0.60 0.62 0.66 0.75 0.85
1.19 1.04 0.88 0.79 0.76 0.72 0.68 0.65 0.61 0.59 0.61 0.58 0.56 0.61 0.61 0.58 0.55 0.48 0.45 0.43 0.43 0.42 0.39 0.39 0.38 0.37 0.37 0.37 0.37 0.41 0.44 0.50 0.55 0.59 0.64 0.63 0.61 0.58 0.59 0.62 0.65 0.74 0.85
1.23 1.06 0.92 0.85 0.76 0.70 0.70 0.67 0.59 0.52 0.52 0.49 0.45 0.49 0.49 0.48 0.47 0.45 0.41 0.37 0.36 0.36 0.33 0.29 0.27 0.28 0.28 0.28 0.26 0.27 0.30 0.34 0.38 0.44 0.56 0.61 0.61 0.60 0.63 0.67 0.70 0.75 0.85
1.25 1.18 1.06 0.94 0.77 0.67 0.64 0.62 0.59 0.52 0.48 0.47 0.47 0.49 0.45 0.43 0.44 0.45 0.41 0.37 0.35 0.31 0.29 0.26 0.22 0.20 0.21 0.21 0.21 0.21 0.22 0.29 0.32 0.34 0.43 0.50 0.54 0.56 0.57 0.60 0.66 0.75 0.86
1.49 1.43 1.26 1.08 0.93 0.82 0.76 0.71 0.66 0.56 0.48 0.47 0.50 0.52 0.50 0.49 0.49 0.47 0.46 0.42 0.37 0.32 0.26 0.22 0.19 0.17 0.16 0.19 0.19 0.20 0.25 0.30 0.35 0.39 0.42 0.42 0.44 0.43 0.41 0.47 0.55 0.66 0.80
1.55 1.42 1.29 1.16 1.05 0.98 0.88 0.81 0.74 0.63 0.56 0.55 0.54 0.55 0.53 0.53 0.49 0.44 0.44 0.42 0.37 0.32 0.29 0.23 0.20 0.19 0.16 0.15 0.15 0.17 0.27 0.36 0.42 0.45 0.44 0.38 0.38 0.45 0.46 0.45 0.48 0.59 0.68
1.73 1.65 1.44 1.29 1.13 0.98 0.88 0.78 0.68 0.64 0.62 0.60 0.57 0.55 0.51 0.48 0.44 0.43 0.44 0.41 0.36 0.32 0.31 0.27 0.22 0.23 0.17 0.14 0.14 0.16 0.22 0.29 0.32 0.32 0.36 0.43 0.48 0.44 0.43 0.41 0.50 0.61 0.71
1.64 1.58 1.43 1.30 1.17 1.02 0.88 0.79 0.72 0.66 0.62 0.58 0.52 0.45 0.41 0.40 0.39 0.41 0.43 0.40 0.38 0.35 0.31 0.27 0.25 0.26 0.22 0.16 0.14 0.16 0.22 0.25 0.24 0.23 0.26 0.31 0.36 0.35 0.40 0.49 0.63 0.67 0.78
1.16 1.14 1.10 1.05 0.98 0.87 0.76 0.72 0.70 0.62 0.53 0.45 0.37 0.32 0.30 0.33 0.34 0.35 0.37 0.36 0.35 0.32 0.28 0.27 0.27 0.26 0.24 0.17 0.14 0.15 0.18 0.23 0.22 0.26 0.29 0.27 0.24 0.27 0.36 0.51 0.69 0.81 0.85
0.95 0.90 0.86 0.86 0.81 0.72 0.68 0.67 0.63 0.56 0.42 0.33 0.29 0.28 0.27 0.27 0.27 0.29 0.33 0.34 0.32 0.32 0.31 0.31 0.31 0.27 0.21 0.15 0.10 0.09 0.14 0.17 0.22 0.29 0.34 0.33 0.27 0.28 0.33 0.46 0.64 0.80 0.82
0.99 0.90 0.81 0.74 0.63 0.59 0.65 0.68 0.58 0.42 0.32 0.30 0.31 0.30 0.24 0.18 0.19 0.28 0.34 0.32 0.34 0.36 0.37 0.36 0.31 0.26 0.19 0.14 0.10 0.08 0.07 0.10 0.24 0.38 0.35 0.34 0.33 0.32 0.39 0.52 0.68 0.81 0.97
0.92 0.86 0.73 0.63 0.51 0.46 0.51 0.53 0.42 0.28 0.26 0.30 0.34 0.32 0.25 0.23 0.22 0.27 0.31 0.32 0.33 0.31 0.29 0.29 0.28 0.26 0.22 0.17 0.11 0.08 0.08 0.11 0.20 0.34 0.38 0.36 0.34 0.44 0.64 0.76 0.86 0.99 1.17
0.69 0.62 0.58 0.51 0.41 0.35 0.32 0.30 0.23 0.21 0.25 0.29 0.29 0.26 0.26 0.28 0.27 0.26 0.21 0.22 0.25 0.23 0.22 0.24 0.26 0.28 0.27 0.19 0.13 0.14 0.15 0.17 0.21 0.31 0.43 0.51 0.54 0.69 0.90 1.04 1.14 1.21 1.23
0.47 0.43 0.45 0.41 0.30 0.24 0.21 0.17 0.15 0.19 0.26 0.27 0.26 0.24 0.22 0.24 0.28 0.23 0.14 0.12 0.13 0.10 0.14 0.18 0.20 0.26 0.25 0.15 0.12 0.14 0.17 0.19 0.24 0.29 0.45 0.61 0.67 0.80 0.96 1.09 1.16 1.18 1.15
0.35 0.35 0.34 0.31 0.24 0.19 0.17 0.13 0.11 0.15 0.25 0.27 0.23 0.16 0.13 0.15 0.17 0.19 0.18 0.09 0.04 0.04 0.04 0.06 0.09 0.11 0.13 0.11 0.09 0.12 0.16 0.20 0.28 0.35 0.56 0.67 0.69 0.77 0.86 0.96 1.05 1.03 0.99